Location: Unspecified
(0.0000°N, 0.0000°E)
Time: 15:24:17
(UTC+00:00)

Transit 2A Rocket - Visible Passes

Search period start: 22 October 2014 00:00
Search period end: 01 November 2014 00:00
Orbit: 591 x 917 km, 66.7° (Epoch: 22 October)

Date Brightness Start Highest point End Pass type
(mag) Time Alt. Az. Time Alt. Az. Time Alt. Az.
22 Oct 6.7 03:37:51 20° NNE 03:41:18 36° ENE 03:46:50 10° SE visible
22 Oct 6.7 05:19:32 10° WNW 05:23:47 20° WSW 05:28:04 10° SSW visible
23 Oct 7.5 02:58:43 18° ENE 02:59:37 19° ENE 03:03:45 10° ESE visible
23 Oct 5.9 04:38:47 22° WNW 04:42:03 38° WSW 04:47:39 10° S visible
24 Oct 5.2 03:59:30 63° WNW 04:00:21 73° WSW 04:06:27 10° SSE visible
25 Oct 6.1 03:20:04 48° ESE 03:20:04 48° ESE 03:24:40 10° SSE visible
25 Oct 7.1 05:00:06 11° W 05:01:12 11° WSW 05:03:02 10° SW visible
26 Oct 7.7 02:40:29 18° ESE 02:40:29 18° ESE 02:42:16 10° SE visible
26 Oct 6.6 04:20:30 22° SW 04:20:30 22° SW 04:24:08 10° SSW visible
27 Oct 6.8 03:40:47 25° SSW 03:40:47 25° SSW 03:43:28 10° S visible
28 Oct 7.6 03:00:56 16° SSE 03:00:56 16° SSE 03:02:07 10° SSE visible
